カタログに戻る

STARLINK-35863

運用中通信VLEO
NORAD 67170·PAYLOAD·🇺🇸 United States

打ち上げ Dec 17, 2025 から Cape Canaveral Space Force Station

Loading…

次のパス (今後24時間)

TLE

最新Source: CelesTrak SupGP

元期: Sep 14, 2026, 23:05 UTC

1 67170C 25303H   26257.96229167 -.00002616  00000+0 -94782-4 0  2575
2 67170  43.0007 322.0800 0001562 268.4068 276.3082 15.27572135    17

AllMySatでSTARLINK-35863をリアルタイム追跡

Download on the App Store